Back to catalog

USA 400

AliveMilitaryVLEO
NORAD 61021·PAYLOAD·🇺🇸 United States

Launched Sep 6, 2024 from Vandenberg Space Force Base

Loading…

Next Passes (next 24 hours)

TLE

StaleSource: Mike McCants

Epoch: Aug 25, 2026, 23:37 UTC

1 61021U 24160A   26237.98441774 0.00000000  00000-0  00000-0 0    00
2 61021  70.0150 196.6992 0003000 184.6486 175.3513 14.96713321    09

Track USA 400 in real time with AllMySat

Download on the App Store